SCP
0 0 0 0 0 0 0 0 0 0 0 1 1 1 1 1 0 0 0 0 0 0 0 0 0 0 0 0 0 0 0 0 0 0 1 1 1 1
1 1 1 1 1 0 0 0 0 0 0 0 1 1 1 1 0 0 0 0 0 0 0 0 0 0 0 0 0 0 0 0 0 0 0 0 1 1
1 1 1 1 1 1 1 1 1 0 0 0 1 1 1 1 1 0 0 0 0 0 0 0 0 0 0 0 0 0 0 0 0 0 0 0 0 0
2 2 2 2 2 2 1 1 1 1 1 0 0 1 1 1 1 1 0 0 0 0 0 0 0 0 0 0 0 0 0 0 0 0 0 0 0 0
3 3 3 3 3 3 2 2 2 1 1 1 1 1 1 1 1 1 1 0 0 0 0 0 0 0 0 0 0 0 0 0 0 0 0 0 0 0
4 4 3 3 3 3 3 3 2 2 1 1 1 1 1 1 2 1 1 1 0 0 0 0 0 0 0 0 0 0 0 0 0 0 0 0 0 0
4 4 4 3 3 3 3 3 3 2 2 1 1 1 1 1 2 1 1 1 1 0 0 0 0 0 0 0 0 0 0 0 0 0 0 0 0 0
5 4 4 3 3 2 2 2 2 2 2 2 2 1 1 2 2 2 1 1 1 1 1 0 0 0 0 0 0 0 0 0 0 0 0 0 0 0
5 5 4 3 3 2 2 2 1 1 1 2 2 1 1 2 2 2 1 1 1 1 1 1 0 0 0 0 0 0 0 0 0 0 0 0 0 0
4 4 4 3 3 2 2 2 2 1 1 1 1 1 1 1 2 2 1 1 1 1 1 0 0 0 0 0 0 0 0 0 0 0 0 0 0 0
4 3 3 3 2 2 2 2 3 2 1 1 0 0 0 1 1 1 1 1 1 0 0 0 0 0 0 0 0 0 0 0 0 0 0 0 0 0
3 3 2 1 1 1 1 2 2 2 2 1 1 1 0 1 1 1 1 1 0 0 1 1 0 0 0 0 0 0 0 0 0 0 0 0 0 0
2 2 1 0 0 0 0 1 1 1 1 1 1 1 1 1 1 1 1 1 1 0 1 1 1 1 0 0 0 0 0 0 0 0 0 0 0 0
1 1 0 0 0 0 0 0 0 0 1 1 1 1 1 1 2 2 2 1 1 1 1 1 1 1 1 0 0 0 0 0 0 0 0 0 0 0
0 0 0 0 0 0 0 0 0 0 0 0 1 1 1 1 1 2 2 1 1 1 1 1 1 1 1 1 0 0 0 0 0 0 1 0 0 0
0 0 0 0 0 0 0 0 0 0 0 1 1 1 1 1 1 1 1 1 1 1 1 1 1 1 1 1 0 0 0 0 0 0 0 1 0 0
0 0 0 0 0 0 0 0 0 1 1 1 1 1 1 1 1 1 1 1 1 1 1 1 1 1 1 1 0 0 0 0 0 0 0 0 0 0
0 0 0 0 0 0 0 0 1 1 1 1 1 1 1 1 1 1 1 1 1 1 1 1 1 1 1 1 0 0 0 0 0 0 0 0 0 0
0 0 0 0 0 0 0 0 0 1 1 1 1 1 1 1 1 1 1 1 1 1 1 1 1 1 1 1 0 0 0 0 0 0 0 0 0 0
0 0 0 0 0 0 0 0 0 1 1 1 1 1 1 1 1 1 1 1 1 1 1 1 1 1 1 1 0 0 0 0 0 0 0 0 0 0
0 0 0 0 0 0 0 0 0 0 1 1 1 1 1 1 1 1 1 1 1 1 0 1 1 1 1 1 0 0 0 0 0 0 0 0 0 0
0 0 0 0 0 0 0 0 0 0 0 0 0 0 0 1 1 1 1 1 1 0 0 0 1 1 1 0 0 0 0 0 0 0 0 0 0 0
0 0 0 0 0 0 0 0 0 0 0 0 0 0 0 1 1 1 1 1 1 0 0 0 1 1 0 0 0 0 0 0 0 0 0 0 0 0
Wind_Speed
4 4 3 3 2 2 1 1 2 3 3 1 1 2 3 3 7 3 3 7 8 8 8 8 8 8 8 8 8 9 9 10 10 11 12 12 13 15
3 3 3 3 2 2 2 2 2 2 3 2 2 1 2 2 5 3 3 6 10 12 12 12 11 10 9 9 9 10 10 10 10 11 11 12 12 13
6 5 5 5 3 3 2 3 3 3 4 4 3 2 2 3 3 3 4 4 6 13 15 15 13 12 12 11 11 11 11 11 11 11 11 11 12 12
7 7 6 6 7 5 4 4 4 3 4 5 4 3 4 4 5 5 6 7 6 10 13 14 15 15 14 13 13 12 12 12 12 12 12 12 12 13
8 8 7 7 7 6 6 6 5 5 4 5 5 5 4 5 5 6 7 5 8 9 11 15 16 16 15 15 15 14 14 14 14 13 13 12 12 12
8 8 8 8 8 8 7 7 6 6 5 5 5 5 5 6 4 5 5 5 6 8 7 7 12 17 18 17 17 16 16 15 15 14 14 13 13 13
8 8 9 10 11 9 9 7 8 7 6 6 6 6 6 5 5 5 6 5 5 5 5 5 6 7 9 14 17 17 17 17 16 15 15 14 14 14
8 8 9 10 13 15 15 14 11 9 8 7 7 7 7 6 5 5 4 4 5 4 4 5 5 5 5 6 13 18 19 18 17 16 16 15 15 15
6 6 8 11 10 9 12 16 16 17 15 10 11 10 9 6 5 6 6 6 6 4 3 5 4 5 5 7 12 14 17 18 18 17 17 17 16 16
6 7 7 8 10 8 9 10 11 12 14 14 13 14 12 9 8 7 7 7 7 6 6 8 6 6 7 6 10 13 15 17 18 18 18 17 17 16
6 7 8 8 9 10 9 10 10 10 13 17 17 17 19 18 13 7 7 8 9 7 7 9 8 7 7 7 8 14 16 17 18 19 18 18 18 15
5 6 8 7 7 7 7 8 11 10 10 12 11 13 15 15 17 13 11 11 10 8 7 8 8 6 7 6 6 6 9 14 18 18 18 18 16 9
6 6 5 7 9 10 9 9 12 11 10 10 10 9 9 10 11 12 13 13 13 12 7 7 7 6 7 5 5 5 6 6 8 10 15 18 17 13
6 7 7 11 14 15 12 14 16 14 10 10 11 10 10 10 10 11 13 15 15 15 10 8 6 6 6 6 6 5 5 5 6 6 7 13 16 18
7 10 12 15 15 14 16 18 15 10 10 11 12 11 10 10 9 9 10 13 15 16 15 13 11 8 8 8 7 6 5 5 6 6 6 6 6 7
8 11 14 16 16 16 16 13 11 10 11 11 11 10 9 9 9 9 9 9 10 11 12 13 13 13 11 10 8 7 6 6 5 6 6 6 6 6
10 10 10 10 10 9 9 8 8 8 9 9 10 10 10 10 9 8 8 8 10 11 10 10 12 12 13 11 10 9 7 7 6 6 6 6 6 6
10 10 11 10 10 10 10 10 9 9 9 9 9 9 9 10 10 9 9 10 10 10 10 9 8 8 9 11 14 12 9 8 7 7 7 7 7 6
9 10 10 9 9 9 10 11 11 10 9 9 10 9 9 9 9 9 9 10 10 10 10 9 8 9 11 13 11 16 13 10 8 7 7 8 8 7
8 9 9 9 9 9 10 10 10 10 10 10 10 10 10 9 9 10 10 11 10 10 9 9 9 10 12 11 8 8 17 13 9 9 8 7 7 8
9 9 9 9 10 10 10 10 11 11 11 11 10 10 9 9 9 10 10 12 11 10 11 10 10 12 8 6 8 7 8 15 14 9 8 7 6 6
9 9 9 10 10 10 10 10 10 11 11 10 10 9 8 8 10 11 9 9 8 9 10 9 7 6 7 8 10 9 8 7 12 16 14 11 7 8
9 10 10 10 10 9 9 11 13 11 10 10 9 9 9 8 8 8 9 9 8 9 9 8 6 6 8 8 8 8 9 8 6 7 9 14 17 17
Wind_Direction
228 212 228 268 240 255 288 298 298 308 313 312 197 165 154 146 159 195 187 200 207 217 228 235 240 244 246 247 248 249 248 247 246 244 243 242 241 241
241 259 232 268 286 252 237 256 261 267 282 311 302 236 177 207 172 211 237 216 220 227 232 232 231 234 237 241 244 246 245 244 243 242 242 243 244 244
226 228 223 239 270 290 267 238 234 236 254 272 276 284 204 213 209 227 253 239 233 234 233 228 225 228 231 235 239 242 243 243 242 242 242 242 243 244
223 230 228 224 219 236 257 266 257 243 240 261 271 277 261 228 217 219 243 257 254 251 234 224 222 224 228 231 235 237 239 241 242 242 241 241 242 243
220 223 225 228 228 224 225 237 245 249 229 235 245 240 243 241 232 229 239 245 258 264 237 223 223 225 228 231 233 235 236 237 238 239 241 241 242 243
225 224 224 223 226 226 232 232 238 250 255 253 251 245 239 232 219 222 239 234 242 255 255 230 222 225 229 230 232 232 232 234 235 236 238 240 241 243
232 232 235 233 232 231 236 231 229 232 238 243 246 245 240 231 223 218 233 236 236 235 242 242 224 219 224 231 234 235 233 230 230 232 234 236 238 240
236 237 242 241 239 235 237 238 236 236 239 241 246 245 243 237 232 232 235 241 251 240 238 245 239 235 226 219 223 225 227 227 226 227 228 231 233 236
252 251 256 257 252 242 238 238 242 242 239 243 252 254 255 252 248 246 240 240 244 243 259 263 254 253 247 256 253 232 223 221 221 222 224 227 230 233
269 267 264 267 272 273 268 256 245 244 240 239 244 250 253 253 252 252 251 256 252 242 235 252 251 250 255 250 248 237 224 218 218 220 223 227 230 233
279 281 279 273 274 278 276 271 266 257 251 245 236 238 241 244 244 250 248 248 253 243 222 234 239 239 239 238 239 235 226 221 220 221 224 228 231 233
293 288 287 302 321 321 297 286 277 272 273 272 257 249 246 245 237 234 239 245 249 249 231 231 236 233 243 234 230 231 226 228 226 227 228 231 230 227
309 306 308 334 334 322 305 284 276 281 281 273 268 259 247 241 236 230 228 232 240 242 233 228 235 231 232 234 227 224 219 217 217 228 231 233 229 216
306 304 311 328 322 309 296 279 275 276 273 268 263 259 254 248 241 235 230 228 231 236 238 237 239 237 241 244 241 232 229 226 218 215 213 220 225 223
301 308 314 310 304 294 278 273 272 268 264 262 260 258 255 253 251 247 241 236 234 234 235 235 239 244 243 244 244 237 237 234 226 226 224 218 209 203
311 313 307 291 281 272 273 271 259 253 251 256 259 261 260 257 252 248 246 242 242 240 233 229 228 231 238 240 240 241 237 238 232 230 230 231 224 214
312 303 295 293 291 288 285 281 276 271 263 259 261 262 262 261 259 256 252 247 244 243 239 230 228 226 229 231 237 238 238 240 235 233 234 240 236 230
301 294 293 294 295 298 300 298 294 289 285 281 275 271 268 266 265 262 257 252 249 245 241 233 225 225 232 237 226 235 238 239 236 232 230 238 243 236
285 288 293 298 300 303 302 300 298 297 294 288 284 281 278 274 271 268 263 258 254 250 244 236 228 223 232 239 229 214 225 231 231 233 233 234 239 237
300 302 303 305 306 306 305 304 303 301 297 291 284 280 279 274 270 268 265 260 257 255 251 242 233 227 230 237 238 224 212 220 227 232 236 238 240 241
314 313 313 313 312 309 307 304 303 300 298 297 292 284 278 279 276 272 269 265 259 256 253 248 239 230 231 235 244 241 227 214 218 220 222 232 242 244
317 316 315 314 313 310 306 304 302 302 301 297 294 291 286 280 277 276 272 269 264 258 259 257 244 230 227 231 239 243 241 232 225 231 233 227 226 233
320 319 316 313 310 309 309 308 308 304 305 306 305 300 295 290 284 278 276 270 267 264 261 257 251 240 233 229 234 239 243 241 237 229 235 234 233 238